User: anonymous
Location: Caltech
(34.1382°N, 118.1253°W)
Time: 14:24:08
(UTC-07:00)
Language:

RESURS DK-1 - Orbit

View from above orbital plane
View from above orbital plane
View from above satellite
View from above satellite

Ground track
Ground track

The orbit data is extracted from the following two-line orbital elements,

1 29228U 06021A   14107.31932500  .00001324  00000-0  11208-3 0  7632
2 29228 069.9373 158.6485 0006181 298.3611 061.6892 15.00613427434445
Epoch (UTC): 17 April 2014 07:39:49
Eccentricity: 0.0006181
inclination: 69.9373°
perigee height: 561 km
apogee height: 569 km
right ascension of ascending node: 158.6485°
argument of perigee: 298.3611°
revolutions per day: 15.00613427
mean anomaly at epoch: 61.6892°
orbit number at epoch: 43444

The dashed part of the orbit path shows where the satellite is in the earth's shadow,  

DLR